NOAA 16 DEB, 41074

Orbit data source: Space-Track

NOAA 16 DEB, 41074 is space debris in SSO originally from a launch on Thu, 21 Sep 2000 UTC launched from the Air Force Western Test Range (AFWTR). Debris objects in space refer to the collection of defunct objects orbiting the Earth. Examples of debris include non-operational satellites, rocket bodies, and fragments generated from explosions, collisions, or faulty payload assembly.

Loading next visibility...
Identifier
41074, 2000-055AH
Orbit
SSO
Country
Flag of USUS
Related business
Manufacturer
Unknown
Mission
Spacecraft
Bus & Motor
Unknown
Mass
Unknown
Launch date (UTC)
2000-09-21 (26 years ago)
Launch vehicle
Unknown
Launch site
Air Force Western Test Range (AFWTR)
Object type
Payload
Rocket body
Debris
Shape & HBR
Unknown shape, 0.1 m
Radar Cross Section
Medium (>0.1 m² and <1 m²)

Expand to show TLE details & history
Last TLE update: 2 days ago

TLE from 2 days ago
0 NOAA 16 DEB
1 41074U 00055AH  26252.36972682  .00001107  00000-0  30268-3 0  9997
2 41074  98.8781  89.6742 0082411 319.5423  39.9658 14.47476329565731
Epoch: 2026-09-09T08:52Z
TLE epoch observation values (Epoch: 2026-09-09T08:52:24.397Z)
Latitude
-0.00006°
Longitude
-31.85021°
Altitude
692.121 km
Speed
7.534 km/s
True Right ascension
05h 58m 41s
True Declination
0° 00' 00"
Sunlit
Object was in daylight at epoch
Visualization orbit readout
Latitude
Unknown
Longitude
Unknown
Altitude
Unknown
Speed
Unknown
Apparent Right ascension
Unknown
Apparent Declination
Unknown
Sunlit
N/A
Visualization observer readout
Local Sidereal Time
14:57:54
Azimuth
Unknown
Elevation
Unknown
Doppler factor
Unknown
Orbital elements
Apogee altitude
789.62 km
Perigee altitude
672.446 km
Semi-major axis
7,109.17 km
Eccentricity
0.00824
Inclination
98.8781°
RAAN
89.6742°
Arg. of periapsis
319.5423°
True anomaly
40.57721°
Mean anomaly
39.9658°
Eccentric anomaly
40.27102°
Mean motion
3.62089 °/min
Orbital period
99.42 mins
BSTAR
0.00030268
Loading maneuver chart data...
Computing Atmospheric mass density...
Loading historical data...
Loading historical data...
Loading historical data...
Loading historical data...
Loading historical data...
Loading historical data...
Loading historical data...

Documentation

Showing up to 5 results
|